User: anonymous   Login
Location: Laverne
(36.7100°N, 99.8930°W)
Time: 21:30:43
(UTC-05:00)
Language:

Iridium 32 - Orbit

View from above orbital plane
View from above orbital plane
View from above satellite
View from above satellite

Ground track
Ground track

The orbit data is extracted from the following two-line orbital elements,

1 24945U 97051B   17119.87084877 -.00000018 +00000-0 -13525-4 0  9995
2 24945 086.3919 307.3036 0001991 088.6511 271.4913 14.34216435027495
Epoch (UTC): 29 April 2017 20:54:01
Eccentricity: 0.0001991
inclination: 86.3919°
perigee height: 776 km
apogee height: 779 km
right ascension of ascending node: 307.3036°
argument of perigee: 88.6511°
revolutions per day: 14.34216435
mean anomaly at epoch: 271.4913°
orbit number at epoch: 2749

The dashed part of the orbit path shows where the satellite is in the earth's shadow,  

DLR